This demonstration page uses our WeatherBlox Daily Observations layout. Learn more.

Left ArrowRight Arrow

Hourly Observations for October 5, 2022

Temp ( °F °C ) Dew Point ( °F °C ) Humidity (%) Winds ( mph kmh ) Pressure ( in mb ) Visibility ( mi km ) Precip ( " mm )
12:51 am 00:51 Clear 58 14.4 57 13.9 97 97 SSE 3 6 29.96 1015 10 16 0.00 0.00
1:51 am 01:51 Clear 56 13.3 56 13.3 100 100 ENE 6 9 29.97 1015 10 16 0.00 0.00
2:51 am 02:51 Clear 58 14.4 55 12.8 90 90 E 9 15 29.96 1015 10 16 0.00 0.00
3:51 am 03:51 Clear 57 13.9 55 12.8 93 93 Calm 29.95 1014 10 16 0.00 0.00
4:51 am 04:51 Clear 54 12.2 54 12.2 100 100 Calm 29.97 1015 10 16 0.00 0.00
5:51 am 05:51 Mostly Cloudy 53 11.7 53 11.7 100 100 Calm 29.99 1016 10 16 0.00 0.00
6:51 am 06:51 Sunny 55 12.8 54 12.2 96 96 SE 3 6 30.01 1016 10 16 0.00 0.00
7:51 am 07:51 Cloudy 59 15 55 12.8 87 87 SE 3 6 30.03 1017 10 16 0.00 0.00
8:51 am 08:51 Partly Cloudy 65 18.3 56 13.3 73 73 E 5 7 30.04 1017 10 16 0.00 0.00
9:51 am 09:51 Sunny 70 21.1 55 12.8 59 59 ESE 9 15 30.03 1017 10 16 0.00 0.00
10:51 am 10:51 Sunny 74 23.3 55 12.8 52 52 E 7 11 30.01 1016 10 16 0.00 0.00
11:51 am 11:51 Sunny 76 24.4 54 12.2 47 47 SE 6 9 29.98 1015 10 16 0.00 0.00
12:51 pm 12:51 Sunny 77 25 55 12.8 47 47 SW 6 9 29.95 1014 10 16 0.00 0.00
1:51 pm 13:51 Sunny 79 26.1 53 11.7 41 41 VRB 5 7 29.91 1013 10 16 0.00 0.00
2:51 pm 14:51 Sunny 80 26.7 52 11.1 38 38 VRB 5 7 29.90 1012 10 16 0.00 0.00
3:26 pm 15:26 Mostly Cloudy with Nearby Thunderstorms 81 27.2 50 10 34 34 VRB 5 7 29.81 1009 10 16 0.00 0.00
3:51 pm 15:51 Mostly Cloudy with Thunderstorms 75 23.9 50 10 41 41 NNE 22 35 29.93 1014 10 16 0.00 0.00
4:04 pm 16:04 Mostly Cloudy 75 23.9 52 11.1 45 45 NE 26 43 29.87 1011 10 16 0.00 0.00
4:51 pm 16:51 Partly Cloudy 77 25 47 8.3 35 35 NNE 16 26 29.93 1014 10 16 0.00 0.00
5:51 pm 17:51 Mostly Sunny 72 22.2 50 10 46 46 E 10 17 29.94 1014 10 16 0.00 0.00
6:51 pm 18:51 Clear 70 21.1 52 11.1 53 53 ESE 5 7 29.96 1015 10 16 0.00 0.00
7:51 pm 19:51 Partly Cloudy 68 20 54 12.2 61 61 ESE 12 19 29.99 1016 10 16 0.00 0.00
8:51 pm 20:51 Mostly Clear 68 20 55 12.8 63 63 SE 9 15 30.01 1016 10 16 0.00 0.00
9:51 pm 21:51 Clear 67 19.4 55 12.8 66 66 E 6 9 30.02 1017 10 16 0.00 0.00
10:51 pm 22:51 Clear 66 18.9 54 12.2 65 65 ENE 9 15 30.01 1016 10 16 0.00 0.00
11:51 pm 23:51 Mostly Clear 66 18.9 54 12.2 65 65 E 8 13 30.00 1016 10 16 0.00 0.00

Powered by AerisWeather